Theta_e
297 297 296 293 292 294 288 289 287 288 287 292 294 299 300 302 301 300 299 299 300 300 299 298 297 296 296 296 296 295 293 292 292 292 292 292 291 291 291 290 290 289 288 287
294 294 293 291 293 294 294 292 291 293 290 299 299 299 300 300 300 299 299 299 300 300 299 297 296 295 295 295 295 295 292 291 292 291 291 291 291 290 290 289 289 288 286 286
289 293 293 288 291 293 294 296 294 288 295 300 298 297 298 300 300 299 300 300 300 300 299 297 296 296 295 295 295 293 291 291 291 291 290 290 290 289 288 288 288 287 286 285
292 291 282 295 299 298 296 296 298 297 298 299 300 301 301 302 301 300 301 301 301 300 299 297 297 297 296 295 293 292 291 290 290 290 289 290 289 288 288 288 287 286 286 285
289 287 292 295 294 293 294 294 299 298 298 300 300 300 299 303 303 302 302 302 302 301 299 297 296 296 295 294 292 291 290 289 289 290 289 289 288 288 288 288 287 286 286 286
291 287 285 294 295 298 299 292 300 300 300 300 299 293 296 303 304 303 303 303 300 300 298 297 296 296 295 293 291 289 289 290 290 290 289 289 288 288 288 288 287 287 286 286
290 289 292 297 296 299 289 294 300 300 301 301 297 300 302 304 303 304 303 301 301 298 296 296 296 296 294 293 290 290 291 291 290 290 290 289 289 289 288 287 287 286 285 285
290 289 285 300 296 292 301 302 301 302 304 303 304 303 303 303 302 302 301 300 299 297 296 296 296 296 293 291 291 291 291 290 290 290 289 289 288 288 287 287 285 284 283 283
294 295 305 302 302 304 303 303 304 306 305 304 304 302 302 302 302 301 300 299 298 297 296 296 296 296 294 292 291 291 291 291 291 290 289 288 287 285 284 285 283 283 282 281
298 301 301 301 303 303 303 303 304 305 305 305 304 304 303 302 301 300 299 297 297 296 295 295 296 296 295 293 292 291 291 290 290 289 287 286 286 283 280 280 280 280 281 279
298 300 302 302 303 303 302 303 302 304 306 306 305 304 303 302 301 300 299 298 297 296 295 295 296 296 294 293 292 291 291 290 290 290 287 282 280 281 279 278 278 278 278 279
297 304 306 303 306 305 303 302 302 303 304 306 305 304 304 302 301 300 299 298 297 297 296 295 295 295 294 294 292 291 290 290 289 289 289 286 282 279 280 279 279 279 278 278
303 307 307 307 307 306 304 304 303 304 304 304 305 305 304 302 301 298 299 298 297 297 297 296 295 294 294 294 293 292 290 289 288 288 288 286 285 284 279 279 279 279 279 279
306 305 303 304 303 305 305 305 304 304 304 305 305 305 304 302 301 300 298 298 299 298 297 296 295 294 295 294 293 292 289 286 288 288 287 286 285 285 284 282 281 280 278 279
305 306 307 307 306 305 306 305 303 302 303 304 305 304 304 302 300 300 300 300 299 298 296 295 295 294 295 294 292 292 289 289 289 289 288 285 285 284 284 283 282 281 281 279
305 305 305 305 305 306 305 305 302 302 303 304 304 304 304 304 299 301 301 300 298 296 296 293 294 295 295 294 292 291 289 287 287 287 285 285 285 284 283 283 282 282 280 279
304 304 306 305 305 305 306 306 305 304 303 303 304 305 305 297 300 300 300 301 299 296 296 296 292 294 291 293 292 291 289 288 286 287 285 286 285 284 284 283 282 282 279 276
308 309 309 308 307 307 307 307 306 306 304 305 305 304 295 295 297 299 299 301 299 296 297 297 295 293 292 293 293 292 290 287 287 287 287 286 286 285 284 283 283 281 280 277
309 308 309 309 309 309 308 308 307 307 304 303 298 298 296 293 297 298 299 293 291 295 297 298 288 292 293 292 292 293 291 288 287 287 287 285 285 285 284 284 282 282 281 280
309 309 309 309 310 310 308 309 309 308 308 302 292 292 292 291 290 292 298 296 298 298 300 297 293 294 294 292 288 293 292 289 287 288 287 286 285 285 284 282 283 282 282 281
308 309 308 309 309 310 306 307 302 306 302 291 295 292 292 293 292 292 297 296 300 299 300 291 295 295 295 292 290 293 292 290 288 288 287 286 285 285 284 284 283 283 282 281
308 308 307 306 306 304 310 310 308 302 299 290 289 290 289 292 291 295 299 299 301 291 296 294 295 293 294 288 291 293 293 291 290 289 288 286 286 285 285 285 283 283 283 282
310 310 309 306 305 309 311 310 301 302 292 291 290 292 295 297 296 295 296 302 302 293 297 296 293 288 287 292 291 292 292 291 290 289 288 287 286 285 285 284 284 283 283 282
310 310 310 310 310 308 308 308 308 306 296 298 295 292 299 298 297 300 302 295 293 290 297 296 291 287 288 292 291 290 292 291 290 289 288 287 286 286 285 285 284 284 283 282
307 309 309 308 307 307 309 308 308 306 303 302 299 297 302 303 299 299 301 299 289 294 297 289 288 287 291 291 290 290 291 291 289 288 288 287 286 286 285 285 285 285 284 284
304 307 308 308 307 307 308 307 305 305 303 301 299 299 303 303 303 301 301 296 294 293 297 291 289 288 291 291 290 290 291 292 290 289 288 288 288 286 286 286 285 285 285 285
306 298 306 305 306 306 307 305 303 301 301 301 299 301 303 302 301 300 294 294 294 293 292 289 289 289 291 291 291 290 290 291 290 289 289 288 288 287 286 286 286 286 286 285
Wind_Speed
10 5 11 9 16 19 18 8 8 4 9 6 11 10 10 10 13 13 12 12 11 10 9 9 8 6 7 5 5 5 6 6 6 5 6 6 6 6 7 8 8 9 10 9
13 5 8 8 12 19 21 18 14 9 8 11 11 14 12 12 14 14 14 13 13 12 12 10 8 8 6 6 4 5 6 6 6 6 7 6 6 7 7 8 8 9 11 10
8 10 8 8 12 17 17 18 18 16 11 9 13 13 13 13 13 14 14 14 13 13 11 9 8 8 7 6 5 6 6 7 7 7 8 7 8 8 7 7 7 9 10 13
3 6 3 10 2 11 19 15 19 17 11 7 11 7 13 13 14 13 14 14 13 12 11 10 9 8 7 7 6 6 6 7 7 7 8 8 8 8 7 6 7 7 9 11
3 7 10 12 5 4 7 13 14 17 15 12 10 9 8 10 13 12 13 14 12 12 12 11 10 9 7 7 6 6 7 7 8 7 8 8 8 7 7 6 6 7 9 10
2 3 3 5 4 1 2 2 4 14 13 12 11 7 7 11 14 14 16 14 14 14 12 11 9 8 7 7 6 7 7 6 7 7 8 7 7 6 6 6 8 6 9 9
2 2 7 6 5 3 4 3 5 6 13 12 9 6 15 15 16 15 15 16 16 14 11 10 9 8 7 7 7 7 7 7 7 6 6 6 6 6 6 7 7 7 8 9
3 4 6 9 5 3 3 1 3 4 6 11 11 15 17 17 17 17 17 17 16 12 11 10 10 8 8 8 7 7 7 7 7 6 6 6 7 7 8 7 7 7 8 7
8 5 2 6 3 6 2 5 3 3 11 14 16 16 15 17 17 16 17 14 13 12 12 10 10 8 9 9 8 7 6 7 6 6 7 7 7 8 6 8 6 7 7 7
4 7 7 7 4 7 2 4 5 0 11 15 12 16 16 15 15 15 15 14 12 13 12 10 9 9 11 10 9 8 7 7 7 5 8 8 6 7 6 6 6 6 6 7
6 3 4 8 8 8 7 4 4 5 8 14 13 15 15 15 14 15 14 14 13 12 11 11 10 10 10 10 9 8 7 6 5 4 9 8 7 5 6 6 6 5 5 5
4 7 2 6 8 9 9 8 7 9 8 13 13 14 16 14 13 13 13 13 12 13 12 12 11 11 11 9 8 7 7 5 4 4 3 8 7 6 10 8 8 10 11 7
4 5 7 6 4 10 9 11 9 9 10 13 13 14 15 14 14 13 13 13 13 13 12 13 12 11 11 9 8 8 6 8 3 5 4 4 3 7 6 3 5 6 7 7
7 5 5 6 4 6 6 11 11 12 9 11 13 15 14 14 13 14 14 13 13 13 13 12 12 11 11 9 9 7 6 7 5 4 4 4 4 3 3 2 2 3 2 2
7 7 2 5 2 8 5 7 13 12 11 11 12 14 14 15 15 14 13 13 13 12 12 9 12 12 12 9 9 6 6 3 5 4 3 5 3 3 3 2 2 2 3 3
10 8 8 7 7 8 9 8 11 11 11 12 12 15 15 13 11 12 13 13 14 12 13 11 10 11 11 9 9 6 6 7 5 5 4 3 3 3 2 2 2 2 3 2
10 8 8 5 7 9 9 9 9 12 12 13 12 13 15 12 12 12 14 12 10 10 12 10 10 11 10 9 10 6 6 5 6 5 4 3 3 2 2 2 2 2 4 2
9 10 8 7 7 7 7 7 8 11 12 14 13 12 11 15 16 13 13 12 10 10 12 11 11 13 12 11 11 8 7 7 5 5 4 4 4 3 3 3 3 2 5 3
11 11 11 10 10 6 7 8 9 8 11 11 11 11 14 13 14 11 10 9 10 13 13 14 13 15 14 13 11 8 8 8 7 5 5 6 4 3 3 3 2 2 3 4
15 15 11 8 8 6 7 7 8 7 10 11 10 11 12 11 9 9 12 15 17 11 15 15 18 15 15 14 11 9 9 9 9 7 6 6 5 4 4 6 5 4 3 3
19 17 15 11 10 9 8 8 8 8 8 12 15 15 16 14 10 11 13 11 13 11 16 17 16 11 11 12 11 9 9 9 8 7 7 6 5 6 4 5 4 5 5 4
13 14 14 11 11 8 8 8 11 8 10 9 6 11 12 13 12 11 13 13 9 12 11 12 13 15 12 16 12 9 10 10 9 7 7 7 6 6 6 5 7 6 6 6
9 11 13 13 12 14 11 11 9 11 11 12 13 15 15 12 13 13 12 12 9 12 12 12 14 13 14 13 12 10 11 11 10 9 7 8 8 7 7 7 7 7 7 7
5 7 9 9 12 13 13 14 10 12 10 12 10 11 14 10 7 8 4 10 10 13 12 12 14 15 17 10 11 10 9 10 9 7 7 10 8 9 9 8 9 8 8 8
7 7 7 8 11 10 13 12 10 10 11 11 11 11 11 8 6 10 9 9 10 15 11 11 14 16 11 10 10 10 9 9 8 8 7 9 9 9 9 9 9 8 8 8
9 7 6 8 7 7 8 10 9 8 9 9 8 9 8 7 5 10 7 9 11 14 10 8 10 11 11 10 9 10 9 8 9 8 9 9 10 9 11 10 11 11 10 9
3 4 6 6 6 7 7 9 9 9 9 10 10 10 9 9 8 8 9 9 10 10 7 8 9 12 11 9 9 10 8 7 8 9 10 11 9 10 11 11 10 11 10 11
Wind_Direction
219 156 190 192 208 186 195 186 195 223 213 208 212 195 190 178 170 173 176 162 161 155 139 131 125 122 104 93 83 65 61 56 54 37 42 27 28 12 27 14 20 24 18 39
234 197 251 235 207 208 201 210 237 244 249 212 201 196 192 187 177 178 177 167 166 157 151 147 139 124 114 102 86 71 67 61 52 45 41 34 28 28 25 22 21 27 31 17
224 222 247 279 228 230 217 208 205 228 243 208 210 219 184 178 183 182 173 166 163 155 150 140 135 133 131 119 97 81 71 61 51 47 46 37 32 33 24 29 19 34 37 17
177 113 235 238 150 221 232 222 204 218 221 208 212 196 193 181 171 178 168 158 152 143 142 135 136 121 122 123 108 90 75 65 51 48 49 40 36 31 26 26 26 37 32 37
161 212 296 268 198 222 201 227 221 209 207 184 197 143 160 172 155 165 153 135 137 136 134 135 139 143 137 123 112 95 77 65 58 46 48 45 37 28 26 27 25 29 41 39
279 270 265 76 78 4 95 217 238 199 190 183 173 177 154 165 146 132 125 132 137 137 137 145 140 139 140 125 108 91 82 72 68 48 51 48 44 24 29 34 26 28 40 32
254 299 300 118 116 166 190 75 358 322 166 169 177 211 149 138 126 129 135 139 136 140 144 139 138 143 130 131 109 110 103 89 70 52 75 47 50 32 32 35 33 32 34 36
224 220 264 134 136 240 76 114 320 239 201 162 124 116 131 132 135 139 141 138 142 142 138 137 147 150 148 122 125 125 113 92 80 68 45 50 54 39 22 38 29 32 34 26
193 213 200 158 21 99 12 73 354 221 125 130 131 140 141 137 140 142 138 144 144 142 139 146 154 157 139 130 136 133 119 103 104 80 71 55 56 49 31 21 31 24 35 22
168 222 167 191 164 155 103 89 98 210 136 127 145 146 142 141 142 141 144 150 150 142 151 152 154 146 124 145 144 143 127 122 94 68 83 55 46 68 45 24 23 27 27 32
232 122 145 188 194 198 189 177 139 155 149 145 149 147 145 145 147 148 156 151 147 151 156 155 149 135 141 146 153 146 130 116 102 122 117 100 68 36 83 53 40 36 9 48
212 153 131 109 169 188 183 184 177 152 164 142 161 151 149 151 151 154 155 150 149 156 158 151 153 143 145 150 162 141 136 143 113 122 103 140 132 106 75 99 87 76 60 42
92 105 88 111 125 162 191 177 180 164 174 158 161 151 154 152 157 157 153 155 161 159 155 151 154 148 150 156 153 155 156 132 131 151 129 126 114 150 142 127 96 89 96 69
136 130 144 170 167 176 209 179 166 170 167 163 163 154 155 157 153 158 162 162 161 156 152 156 153 152 149 157 158 163 112 133 164 118 116 134 99 85 69 102 132 162 216 126
178 198 266 37 119 153 183 175 172 180 171 170 168 157 158 162 161 165 161 161 158 153 150 152 157 154 150 161 155 155 135 131 119 113 90 95 108 114 133 134 138 145 131 209
200 204 218 222 236 237 176 201 176 187 167 173 170 163 163 159 155 158 161 165 160 165 153 161 148 153 146 161 147 136 140 138 129 128 139 157 146 147 148 152 157 115 84 46
241 241 239 238 223 229 221 191 194 187 171 173 174 163 162 137 152 162 170 167 154 150 157 155 152 137 145 159 150 147 144 148 152 144 168 162 157 155 141 142 148 118 112 88
244 241 232 214 227 227 219 201 200 184 175 170 167 166 130 155 170 170 171 161 138 142 159 156 148 148 160 160 159 164 159 162 173 171 170 163 170 167 160 162 154 142 133 142
248 235 229 208 224 219 195 206 186 193 164 159 149 154 160 163 168 166 158 138 145 159 174 160 146 160 169 171 166 169 165 166 179 189 177 171 178 172 164 157 150 153 143 143
228 232 239 213 217 192 186 197 174 189 163 141 125 134 157 172 159 152 159 171 183 175 163 158 160 172 179 171 168 173 170 172 182 192 173 173 180 190 174 177 174 162 154 163
226 226 222 221 215 185 186 174 171 179 157 145 156 167 174 170 165 166 167 182 186 165 170 156 172 181 181 165 177 178 178 177 183 188 178 180 178 185 192 177 172 167 177 193
225 218 217 212 207 197 180 170 183 151 144 160 139 142 142 162 170 189 190 190 174 162 158 167 177 183 179 157 179 184 180 183 187 186 174 174 180 187 190 183 185 185 192 199
221 218 209 200 208 208 188 187 171 159 159 168 162 166 177 173 172 173 196 196 171 168 164 175 180 173 155 165 180 189 182 184 189 191 184 178 182 190 194 202 197 196 201 203
225 211 217 204 190 205 197 190 168 166 171 173 170 170 167 160 174 200 192 168 172 163 174 177 174 164 163 170 179 190 184 186 191 185 178 176 184 194 205 203 204 204 207 204
250 223 198 180 179 204 186 178 168 156 168 166 163 173 183 179 173 182 184 175 151 164 177 165 164 163 171 173 179 185 187 188 185 176 179 183 194 197 208 205 212 212 209 212
238 216 188 195 180 194 183 172 174 163 165 160 152 168 174 158 151 157 161 148 160 171 174 160 169 170 178 176 176 181 188 186 179 181 190 198 207 205 214 211 218 220 219 214
235 194 180 179 193 187 175 164 166 164 163 157 154 167 155 151 153 150 143 152 164 172 153 157 166 176 179 177 178 186 188 186 186 194 202 212 211 211 215 217 215 222 217 220